Tracking 30261 objects as of 18-Feb-2025
HD Live streaming from Space Station
objects crossing your sky now

ONEWEB-0516

Track ONEWEB-0516 now!
10-day predictions
ONEWEB-0516 is classified as:


NORAD ID: 54134
Int'l Code: 2022-138X
Perigee: 1,191.4 km
Apogee: 1,194.4 km
Inclination: 87.9 °
Period: 109.1 minutes
Semi major axis: 7563 km
RCS: Unknown
Launch date: October 22, 2022
Source: United Kingdom (UK)
Launch site: SRIHARIKOTA (SRI)
Your satellite tracking list
Your tracking list is empty




NASA's NSSDC Master Catalog

Two Line Element Set (TLE):
1 54134U 22138X   25049.20863815  .00000012  00000-0 -11273-5 0  9999
2 54134  87.9166  41.1881 0002034  88.8389 271.2977 13.19726187113861
Source of the keplerian elements: AFSPC